Location: *
(48.8667°N, 2.3331°E)
Time: 08:34:16
(UTC+00:00)

Cosmos 2061 Rocket - Pass Details

Date: 22 August 2020
Orbit: 966 x 1012 km, 82.9° (Epoch: 23 September)

Event Time Altitude Azimuth Distance (km) Brightness Sun altitude
Exits shadow 20:43:42 18° 168° (SSE) 2,199 5.4 -16.7°
Maximum altitude 20:48:22 61° 93° (E) 1,097 4.0 -17.3°
Drops below altitude 10° 20:54:29 10° 15° (NNE) 2,726 6.7 -18.0°
Sets 20:57:01 0° 12° (NNE) 3,682 7.5 -18.3°
